COSMOS 2197

Satellite information

Favourite Embed

Satellite Type and Status

PAYLOADIN ORBIT

Key statistics

Satellite COSMOS 2197 at a glance.

Uptime

12211

Days in orbit

Revolutions

≈ 12.6

Per day

Orbit

LEO

Low Earth Orbit

Inclination

82.6

Latest

Satellite identification and parameters

Extended collection of information and parameters for COSMOS 2197.

Object identification

Identified? True

Debris? False

Object name: COSMOS 2197

International designator: 1992-042A

Object number (NORAD): 22034

Object ID (CCSDS): 22034

Country: COMMONWEALTH OF INDEPENDENT STATES (CIS)

Current information (Y/N): Y

RCS size: LARGE

Orbital parameters

Period: 113.902 minutes

Inclination: 82.5947 deg

SMA: 7783.611 km

Apoapsis: 1414.942 km

Periapsis: 1396.01 km

RAAN: 344.7757 deg

Eccentricy: 0.0012161

Argument of periapsis: 331.9992 deg

Mean anomaly: 90.2293 deg

Mean motion: 12.64244508 rev/day

Mean motion (dot): 0.00000033 rev/day2

B* drag term: 0.0001240915 1/REarth

Two-line elements (TLE)

Creation date: Dec. 18, 2025, 2:19 a.m.

Reference frame: TEME

Reference center: EARTH

Epoch: Dec. 17, 2025, 10:10 p.m. UTC

TLE line 0: 0 COSMOS 2197

TLE line 1: 1 22034U 92042A 25351.92403005 .00000033 00000-0 12409-3 0 9992

TLE line 2: 2 22034 82.5947 344.7757 0012161 331.9992 90.2293 12.64244508542385

Live tracking on map

Real-time ground track for satellite COSMOS 2197.

In-orbit conjunctions

There are no conjunctions computed for COSMOS 2197, at the moment. Check back to stay up to date, as we update our databases every day.

Go to all conjunctions

Associated space launch

Second generation store-dump military communications satellite

COSMOS 2197 was lifted into orbit during the mission ‘Tsiklon-3 | Strela-3 79 to 82’, on board a Tsiklon-3 space rocket.

The launch took place on July 13, 1992, 5:41 p.m. from 32/1.

For more information about the launch, click the button.

Launch to space Tsiklon-3 | Strela-3 79 to 82
Tsiklon-3 | Strela-3 79 to 82

Agency: N/A

Status: Launch Successful

Launch date: July 13, 1992, 5:41 p.m. UTC

Rocket: Tsiklon-3

Launch pad: 32/1

Location: Plesetsk Cosmodrome, Russian Federation

...

Latest news about this satellite

There are no fresh news available about this satellite. Check back as we update our databases every day.


Newsletter sign-up

Weekly statistics, charts and insights to help you stay on top of the space industry.